This is the latest recevied weather packets stored in our database for station/object WY1B. If no packets are shown the sender has not sent any weather packets the latest 10 day(s).
| Time | Temp. | Humidity | Pressure | Rain* | Wind** | Luminosity | Snow |
|---|---|---|---|---|---|---|---|
| 1787844349 | 37.78° C | 27% | 1006 hPa | 0 mm | - | 157 W/m² | - |
| 1787844048 | 37.78° C | 26% | 1005.9 hPa | 0 mm | - | 155 W/m² | - |
| 1787843744 | 37.78° C | 27% | 1005.7 hPa | 0 mm | - | 162 W/m² | - |
| 1787843439 | 37.22° C | 27% | 1005.8 hPa | 0 mm | - | 162 W/m² | - |
| 1787843137 | 36.67° C | 27% | 1005.5 hPa | 0 mm | - | 158 W/m² | - |
| 1787842836 | 36.67° C | 26% | 1005.4 hPa | 0 mm | - | 158 W/m² | - |
| 1787842531 | 36.11° C | 28% | 1005.7 hPa | 0 mm | - | 153 W/m² | - |
| 1787842230 | 36.11° C | 28% | 1005.6 hPa | 0 mm | - | 156 W/m² | - |
| 1787841925 | 35.56° C | 28% | 1005.9 hPa | 0 mm | - | 149 W/m² | - |
| 1787841621 | 35.56° C | 27% | 1005.5 hPa | 0 mm | - | 137 W/m² | - |
| 1787841320 | 35.56° C | 28% | 1005.6 hPa | 0 mm | - | 124 W/m² | - |
| 1787841015 | 35° C | 28% | 1005.8 hPa | 0 mm | - | 112 W/m² | - |
| 1787840710 | 34.44° C | 28% | 1005.6 hPa | 0 mm | - | 115 W/m² | - |
| 1787840405 | 33.89° C | 29% | 1005.6 hPa | 0 mm | - | 100 W/m² | - |
| 1787840101 | 33.33° C | 29% | 1005.7 hPa | 0 mm | - | 127 W/m² | - |
| 1787839801 | 32.78° C | 30% | 1005.5 hPa | 0 mm | - | 107 W/m² | - |
| 1787839495 | 32.78° C | 30% | 1005.1 hPa | 0 mm | - | 66 W/m² | - |
| 1787839194 | 32.22° C | 32% | 1005 hPa | 0 mm | - | 60 W/m² | - |
| 1787838894 | 32.22° C | 32% | 1005.2 hPa | 0 mm | - | 53 W/m² | - |
| 1787838594 | 32.22° C | 34% | 1005.1 hPa | 0 mm | - | 45 W/m² | - |
| 1787838293 | 31.67° C | 31% | 1004.9 hPa | 0 mm | - | 38 W/m² | - |
| 1787837992 | 31.67° C | 30% | 1004.8 hPa | 0 mm | - | 31 W/m² | - |
| 1787837692 | 31.67° C | 31% | 1005 hPa | 0 mm | - | 27 W/m² | - |
| 1787837387 | 31.11° C | 31% | 1004.8 hPa | 0 mm | - | 24 W/m² | - |
| 1787837082 | 31.11° C | 32% | 1004.8 hPa | 0 mm | - | 20 W/m² | - |
* Rain latest hour (hover to see other rain measurements)
** Current wind speed in m/s (hover to see current wind gust speed)